Time,TemperatureF,DewpointF,PressureIn,WindDirection,WindDirectionDegrees,WindSpeedMPH,WindSpeedGustMPH,Humidity,HourlyPrecipIn,Conditions,Clouds,dailyrainin,SolarRadiationWatts/m^2,SoftwareType,DateUTC
2013-12-16 00:11:00,26.0,24.0,-100.00,North,-999,0.0,4.0,92,0.00,,,0.00,0.000000,,2013-12-16 07:11:00,
2013-12-16 00:22:00,26.0,24.0,-100.00,North,-999,0.0,4.0,92,0.00,,,0.00,0.000000,,2013-12-16 07:22:00,
2013-12-16 00:32:00,26.0,24.0,-100.00,North,-999,0.0,4.0,92,0.00,,,0.00,0.000000,,2013-12-16 07:32:00,
2013-12-16 00:42:00,28.0,25.0,-100.00,ENE,74,3.0,5.0,87,0.00,,,0.00,0.000000,,2013-12-16 07:42:00,
2013-12-16 01:12:00,28.0,25.0,-100.00,ENE,74,3.0,5.0,87,0.00,,,0.00,0.000000,,2013-12-16 08:12:00,
2013-12-16 01:22:00,28.0,25.0,-100.00,ENE,74,3.0,5.0,87,0.00,,,0.00,0.000000,,2013-12-16 08:22:00,
2013-12-16 01:32:00,28.0,25.0,-100.00,ENE,74,3.0,5.0,87,0.00,,,0.00,0.000000,,2013-12-16 08:32:00,
2013-12-16 01:42:00,25.0,23.0,-100.00,North,-999,0.0,5.0,91,0.00,,,0.00,0.000000,,2013-12-16 08:42:00,
2013-12-16 02:11:00,25.0,23.0,-100.00,North,-999,0.0,5.0,91,0.00,,,0.00,0.000000,,2013-12-16 09:11:00,
2013-12-16 02:22:00,25.0,23.0,-100.00,North,-999,0.0,5.0,91,0.00,,,0.00,0.000000,,2013-12-16 09:22:00,
2013-12-16 02:33:00,25.0,23.0,-100.00,North,-999,0.0,5.0,91,0.00,,,0.00,0.000000,,2013-12-16 09:33:00,
2013-12-16 02:42:00,27.0,24.0,-100.00,East,98,1.0,3.0,87,0.00,,,0.00,0.000000,,2013-12-16 09:42:00,
2013-12-16 03:12:00,27.0,24.0,-100.00,East,98,1.0,3.0,87,0.00,,,0.00,0.000000,,2013-12-16 10:12:00,
2013-12-16 03:23:00,27.0,24.0,-100.00,East,98,1.0,3.0,87,0.00,,,0.00,0.000000,,2013-12-16 10:23:00,
2013-12-16 03:33:00,27.0,24.0,-100.00,East,98,1.0,3.0,87,0.00,,,0.00,0.000000,,2013-12-16 10:33:00,
2013-12-16 03:42:00,27.0,23.0,-100.00,East,100,1.0,5.0,85,-99.99,,,0.00,0.000000,,2013-12-16 10:42:00,
2013-12-16 04:12:00,27.0,23.0,-100.00,East,100,1.0,5.0,85,-99.99,,,0.00,0.000000,,2013-12-16 11:12:00,
2013-12-16 04:22:00,27.0,23.0,-100.00,East,100,1.0,5.0,85,-99.99,,,0.00,0.000000,,2013-12-16 11:22:00,
2013-12-16 04:33:00,27.0,23.0,-100.00,East,100,1.0,5.0,85,-99.99,,,0.00,0.000000,,2013-12-16 11:33:00,
2013-12-16 04:42:00,27.0,23.0,-100.00,North,-999,0.0,4.0,83,0.00,,,0.00,0.000000,,2013-12-16 11:42:00,
2013-12-16 05:12:00,27.0,23.0,-100.00,North,-999,0.0,4.0,83,0.00,,,0.00,0.000000,,2013-12-16 12:12:00,
2013-12-16 06:21:00,28.0,23.0,-100.00,North,-999,0.0,2.0,81,0.00,,,0.00,0.000000,,2013-12-16 13:21:00,
2013-12-16 06:32:00,28.0,23.0,-100.00,North,-999,0.0,2.0,81,0.00,,,0.00,0.000000,,2013-12-16 13:32:00,
2013-12-16 08:11:00,26.0,22.0,-100.00,NNE,31,1.0,3.0,83,-99.99,,,0.00,0.000000,,2013-12-16 15:11:00,
2013-12-16 10:42:00,31.0,25.0,-100.00,NW,313,2.0,4.0,77,-99.99,,,0.00,219.000000,,2013-12-16 17:42:00,
2013-12-16 11:12:00,31.0,25.0,-100.00,NW,313,2.0,4.0,77,-99.99,,,0.00,219.000000,,2013-12-16 18:12:00,
2013-12-16 11:22:00,31.0,25.0,-100.00,NW,313,2.0,4.0,77,-99.99,,,0.00,219.000000,,2013-12-16 18:22:00,
2013-12-16 11:32:00,31.0,25.0,-100.00,NW,313,2.0,4.0,77,-99.99,,,0.00,219.000000,,2013-12-16 18:32:00,
2013-12-16 12:11:00,36.0,27.0,-100.00,South,173,1.0,5.0,69,0.00,,,0.00,323.000000,,2013-12-16 19:11:00,
2013-12-16 13:42:00,37.0,27.0,-100.00,SW,217,2.0,5.0,68,-99.99,,,0.00,350.000000,,2013-12-16 20:42:00,
2013-12-16 14:11:00,37.0,27.0,-100.00,SW,217,2.0,5.0,68,-99.99,,,0.00,350.000000,,2013-12-16 21:11:00,
2013-12-16 14:21:00,37.0,27.0,-100.00,SW,217,2.0,5.0,68,-99.99,,,0.00,350.000000,,2013-12-16 21:21:00,
2013-12-16 14:32:00,37.0,27.0,-100.00,SW,217,2.0,5.0,68,-99.99,,,0.00,350.000000,,2013-12-16 21:32:00,
2013-12-16 14:42:00,38.0,27.0,-100.00,NW,306,3.0,4.0,63,0.00,,,0.00,327.000000,,2013-12-16 21:42:00,
2013-12-16 15:13:00,38.0,27.0,-100.00,NW,306,3.0,4.0,63,0.00,,,0.00,327.000000,,2013-12-16 22:13:00,
2013-12-16 15:22:00,38.0,27.0,-100.00,NW,306,3.0,4.0,63,0.00,,,0.00,327.000000,,2013-12-16 22:22:00,
2013-12-16 15:33:00,38.0,27.0,-100.00,NW,306,3.0,4.0,63,0.00,,,0.00,327.000000,,2013-12-16 22:33:00,
2013-12-16 15:42:00,39.0,27.0,-100.00,SSW,210,1.0,5.0,61,0.00,,,0.00,237.000000,,2013-12-16 22:42:00,
2013-12-16 16:12:00,39.0,27.0,-100.00,SSW,210,1.0,5.0,61,0.00,,,0.00,237.000000,,2013-12-16 23:12:00,
2013-12-16 16:22:00,39.0,27.0,-100.00,SSW,210,1.0,5.0,61,0.00,,,0.00,237.000000,,2013-12-16 23:22:00,
2013-12-16 16:33:00,39.0,27.0,-100.00,SSW,210,1.0,5.0,61,0.00,,,0.00,237.000000,,2013-12-16 23:33:00,
2013-12-16 16:42:00,37.0,26.0,-100.00,WSW,242,1.0,5.0,64,0.00,,,0.00,121.000000,,2013-12-16 23:42:00,
2013-12-16 17:11:00,37.0,26.0,-100.00,WSW,242,1.0,5.0,64,0.00,,,0.00,121.000000,,2013-12-17 00:11:00,
2013-12-16 17:21:00,37.0,26.0,-100.00,WSW,242,1.0,5.0,64,0.00,,,0.00,121.000000,,2013-12-17 00:21:00,
2013-12-16 17:32:00,37.0,26.0,-100.00,WSW,242,1.0,5.0,64,0.00,,,0.00,121.000000,,2013-12-17 00:32:00,
2013-12-16 17:42:00,32.0,24.0,-100.00,North,-999,0.0,5.0,73,0.00,,,0.00,9.000000,,2013-12-17 00:42:00,
2013-12-16 18:11:00,32.0,24.0,-100.00,North,-999,0.0,5.0,73,0.00,,,0.00,9.000000,,2013-12-17 01:11:00,
2013-12-16 18:22:00,32.0,24.0,-100.00,North,-999,0.0,5.0,73,0.00,,,0.00,9.000000,,2013-12-17 01:22:00,
2013-12-16 18:32:00,32.0,24.0,-100.00,North,-999,0.0,5.0,73,0.00,,,0.00,9.000000,,2013-12-17 01:32:00,
2013-12-16 18:42:00,31.0,24.0,-100.00,North,-999,0.0,2.0,76,0.00,,,0.00,0.000000,,2013-12-17 01:42:00,
2013-12-16 19:11:00,31.0,24.0,-100.00,North,-999,0.0,2.0,76,0.00,,,0.00,0.000000,,2013-12-17 02:11:00,
2013-12-16 19:22:00,31.0,24.0,-100.00,North,-999,0.0,2.0,76,0.00,,,0.00,0.000000,,2013-12-17 02:22:00,
2013-12-16 19:32:00,31.0,24.0,-100.00,North,-999,0.0,2.0,76,0.00,,,0.00,0.000000,,2013-12-17 02:32:00,
2013-12-16 19:42:00,30.0,25.0,-100.00,North,11,1.0,3.0,82,0.00,,,0.00,0.000000,,2013-12-17 02:42:00,
2013-12-16 20:11:00,30.0,25.0,-100.00,North,11,1.0,3.0,82,0.00,,,0.00,0.000000,,2013-12-17 03:11:00,
2013-12-16 20:22:00,30.0,25.0,-100.00,North,11,1.0,3.0,82,0.00,,,0.00,0.000000,,2013-12-17 03:22:00,
2013-12-16 20:33:00,30.0,25.0,-100.00,North,11,1.0,3.0,82,0.00,,,0.00,0.000000,,2013-12-17 03:33:00,
2013-12-16 20:42:00,30.0,25.0,-100.00,North,-999,0.0,3.0,80,0.00,,,0.00,0.000000,,2013-12-17 03:42:00,
2013-12-16 21:13:00,30.0,25.0,-100.00,North,-999,0.0,3.0,80,0.00,,,0.00,0.000000,,2013-12-17 04:13:00,
2013-12-16 21:23:00,30.0,25.0,-100.00,North,-999,0.0,3.0,80,0.00,,,0.00,0.000000,,2013-12-17 04:23:00,
2013-12-16 21:33:00,30.0,25.0,-100.00,North,-999,0.0,3.0,80,0.00,,,0.00,0.000000,,2013-12-17 04:33:00,
2013-12-16 21:42:00,30.0,24.0,-100.00,North,-999,0.0,3.0,78,0.00,,,0.00,0.000000,,2013-12-17 04:42:00,
2013-12-16 22:11:00,30.0,24.0,-100.00,North,-999,0.0,3.0,78,0.00,,,0.00,0.000000,,2013-12-17 05:11:00,
2013-12-16 22:42:00,31.0,24.0,-100.00,North,-999,0.0,4.0,75,0.00,,,0.00,0.000000,,2013-12-17 05:42:00,
2013-12-16 23:11:00,31.0,24.0,-100.00,North,-999,0.0,4.0,75,0.00,,,0.00,0.000000,,2013-12-17 06:11:00,
2013-12-16 23:22:00,31.0,24.0,-100.00,North,-999,0.0,4.0,75,0.00,,,0.00,0.000000,,2013-12-17 06:22:00,
2013-12-16 23:32:00,31.0,24.0,-100.00,North,-999,0.0,4.0,75,0.00,,,0.00,0.000000,,2013-12-17 06:32:00,